Regional Weather Roundup
Issued by NWS

Home | Current Version | Previous Version | Graphics & Text | Print | Product List | Glossary On
Versions: 1 2 3 4 5 6 7 8 9 10 11 12 13 14 15 16 17 18 19 20 21 22 23 24 25 26 27 28 29 30 31 32 33 34 35 36 37 38 39 40 41 42 43 44 45 46 47 48 49 50
000
ASUS43 KIND 222309
RWRIN

WEATHER ROUNDUP FOR INDIANA
NATIONAL WEATHER SERVICE INDIANAPOLIS IN
700 PM EDT FRI SEP 22 2017

NOTE: "FAIR" INDICATES FEW OR NO CLOUDS BELOW 12,000 FEET WITH NO
SIGNIFICANT WEATHER AND/OR OBSTRUCTIONS TO VISIBILITY.

* - STATION DOES NOT REPORT WEATHER SUCH AS PRECIPITATION OR FOG.

+ - STATION NOT QUALITY CONTROLLED BY THE NATIONAL WEATHER SERVICE.
    USE DATA WITH CAUTION...ESPECIALLY DEWPOINT AND RELATIVE
    HUMIDITY OBSERVATIONS.

INZ001>003-010>013-019-020-230000-
NORTHWEST INDIANA

CITY           SKY/WX    TMP DP  RH WIND       PRES   REMARKS
GARY /AIRPORT/ CLEAR     88  61  40 E7        30.03S
KNOX *+        CLEAR     88  68  51 E5        30.05R
LA PORTE +     CLEAR     89  67  49 E6        30.05F
MICHIGAN CITY+ CLEAR     82  70  65 CALM      30.05S
MONTICELLO +   CLEAR     88  66  47 CALM      30.04R
RENSSELAER +   CLEAR     88  55  33 CALM      30.04R
VALPARAISO     CLEAR     92  66  42 CALM      30.05R

$$

LMZ046-743>745-230000-
SOUTHERN LAKE MICHIGAN

STATION/POSITION TIME  TEMP    WIND        PRES    WAVE
                       AIR SEA DIR/SP/G            HT
                 (UTC) (F)     (DEG/KT/KT) (MB)    (FT)
BURNS HARBOR     2240   80      80/ 11/ 13 1017.3S
MICHIGAN CITY    2240   80      50/ 13/ 14   N/A
5NW MICH CITY    2300   76 74   70/  6/  6   N/A     0

$$

INZ004-005-014>016-021>024-230000-
NORTH CENTRAL INDIANA

CITY           SKY/WX    TMP DP  RH WIND       PRES   REMARKS
ELKHART        CLEAR     90  64  43 CALM      30.06R
GOSHEN         CLEAR     88  66  48 E5        30.06S
LOGANSPORT +   CLEAR     86  66  51 CALM      30.06R
PERU/GRISSOM   PTCLDY    84  65  52 E14       30.06R THUNDER
SOUTH BEND     CLEAR     88  67  49 CALM      30.06S
WARSAW +       CLEAR     84  70  61 CALM      30.07R

$$

INZ006>009-017-018-025>027-230000-
NORTHEAST INDIANA

CITY           SKY/WX    TMP DP  RH WIND       PRES   REMARKS
AUBURN +       CLEAR     86  70  58 CALM      30.08R
FORT WAYNE     PTCLDY    83  71  67 SE3       30.07R
HUNTINGTON +   CLEAR     86  68  56 CALM      30.06R
KENDALLVILLE + CLEAR     85  74  70 CALM      30.09R

$$

INZ028-029-035-036-043>045-051>053-230000-
WEST CENTRAL INDIANA

CITY           SKY/WX    TMP DP  RH WIND       PRES   REMARKS
CRAWFORDSVL +  MOCLDY    79  63  57 E5        30.05
GREENCASTLE +  PTCLDY    82  66  57 CALM      30.04S
LAFAYETTE      CLOUDY    84  70  62 SW3       30.03R
TERRE HAUTE    PTCLDY    90  63  40 E5        30.01S

$$

INZ030>032-037>040-046>048-054>057-064-065-230000-
CENTRAL INDIANA

CITY           SKY/WX    TMP DP  RH WIND       PRES   REMARKS
CP ATTERBURY + MOCLDY    86  68  54 NE5       30.05R
COLUMBUS       PTCLDY    86  63  45 S6        30.03S
FISHERS *+     CLOUDY    79  73  83 CALM      30.05F
FRANKFORT +    CLOUDY    87  70  57 E6        30.07R
GREENWOOD *+   CLOUDY    82  73  74 CALM      30.05F
INDIANAPOLIS   CLOUDY    83  64  52 E3        30.04S
-EAGLE CREEK   CLOUDY    83  66  56 E3        30.04S
KOKOMO +       LGT RAIN  86  67  52 CALM      30.07S
MT COMFORT *+  PTCLDY    77  68  73 SE3       30.05F
SHELBYVILLE    CLOUDY    83  65  54 NE5       30.03F
ZIONSVILLE +   MOCLDY    79  67  66 E3        30.07R

$$

INZ033-034-041-042-049-050-058-059-230000-
EAST CENTRAL INDIANA

CITY           SKY/WX    TMP DP  RH WIND       PRES   REMARKS
MUNCIE         LGT RAIN  78  70  76 CALM      30.06S
RICHMOND +     CLEAR     82  64  54 CALM      30.08R HAZE

$$

INZ060-061-067>069-081>083-085>088-230000-
SOUTHWEST INDIANA

CITY           SKY/WX    TMP DP  RH WIND       PRES   REMARKS
EVANSVILLE     CLEAR     87  65  47 E6        30.01S
HUNTINGBURG +  CLEAR     85  71  63 E6        30.02S
WASHINGTON +   PTCLDY    89  64  43 SE5       30.01R

$$

INZ062-063-066-070>080-084-089>092-230000-
SOUTH CENTRAL AND SOUTHEAST INDIANA

CITY           SKY/WX    TMP DP  RH WIND       PRES   REMARKS
BEDFORD +      CLEAR     84  64  51 E5        30.03R
BLOOMINGTON    CLEAR     86  65  49 CALM      30.04R
MADISON *+     CLEAR     82  64  54 CALM      30.06F
NORTH VERNON + CLEAR     82  72  69 CALM      30.05S
SEYMOUR +      CLEAR     86  66  51 SE3       30.03S

$$




USA.gov is the U.S. government's official web portal to all federal, state and local government web resources and services.